This demonstration page uses our WeatherBlox Daily Observations layout. Learn more.

Left ArrowRight Arrow

41.86663, -103.66717

Hourly Observations for January 16, 2020

Temp ( °F °C ) Dew Point ( °F °C ) Humidity (%) Winds ( mph kmh ) Pressure ( in mb ) Visibility ( mi km ) Precip ( " mm )
12:53 am 00:53 Clear 15 -9.4 11 -11.7 84 84 ESE 13 20 30.46 1032 10 16.0934 0 0
1:53 am 01:53 Clear 15 -9.4 11 -11.7 84 84 ESE 14 22 30.46 1032 10 16.0934 0 0
2:53 am 02:53 Clear 15 -9.4 11 -11.7 84 84 ESE 15 24 30.43 1031 10 16.0934 0 0
3:53 am 03:53 Clear 15 -9.4 11 -11.7 84 84 ESE 14 22 30.43 1031 10 16.0934 0 0
4:53 am 04:53 Clear 15 -9.4 12 -11.1 88 88 E 13 20 30.46 1032 10 16.0934 0 0
5:53 am 05:53 Clear 16 -8.9 12 -11.1 84 84 E 14 22 30.45 1031 10 16.0934 0 0
6:53 am 06:53 Clear 17 -8.3 13 -10.6 84 84 ESE 17 28 30.47 1032 10 16.0934 0 0
7:53 am 07:53 Sunny 20 -6.7 12 -11.1 71 71 E 14 22 30.44 1031 10 16.0934 0 0
8:53 am 08:53 Sunny 27 -2.8 13 -10.6 55 55 SE 14 22 30.42 1030 10 16.0934 0 0
9:53 am 09:53 Sunny 31 -0.6 15 -9.4 52 52 SE 13 20 30.41 1030 10 16.0934 0 0
10:53 am 10:53 Sunny 37 2.8 10 -12.2 33 33 SSE 13 20 30.35 1028 10 16.0934 0 0
11:53 am 11:53 Sunny 39 3.9 9 -12.8 29 29 S 23 37 30.3 1026 10 16.0934 0 0
12:53 pm 12:53 Sunny 40 4.4 9 -12.8 28 28 SSE 17 28 30.24 1024 10 16.0934 0 0
1:15 pm 13:15 Mostly Cloudy 42 5.6 9 -12.8 25 25 S 17 28 30.16 1021 7 11.26538 0 0
1:53 pm 13:53 Cloudy 44 6.7 7 -13.9 22 22 SSE 16 26 30.18 1022 10 16.0934 0 0
2:53 pm 14:53 Cloudy with Haze 45 7.2 4 -15.6 18 18 SSE 23 37 30.17 1022 6 9.65604 0 0
3:53 pm 15:53 Cloudy 43 6.1 3 -16.1 19 19 SSE 13 20 30.16 1021 7 11.26538 0 0
4:53 pm 16:53 Cloudy 39 3.9 5 -15 24 24 ESE 14 22 30.17 1022 7 11.26538 0 0
5:53 pm 17:53 Cloudy 31 -0.6 12 -11.1 45 45 ESE 16 26 30.19 1023 10 16.0934 0 0
6:40 pm 18:40 Partly Cloudy 30 -1.1 13 -10.6 49 49 ESE 14 22 30.2 1023 10 16.0934 0 0
6:53 pm 18:53 Clear 30 -1.1 13 -10.6 49 49 ESE 17 28 30.18 1022 10 16.0934 0 0
7:53 pm 19:53 Clear 29 -1.7 14 -10 54 54 ESE 15 24 30.16 1021 10 16.0934 0 0
8:53 pm 20:53 Clear 29 -1.7 16 -8.9 58 58 ESE 15 24 30.11 1020 10 16.0934 0 0
9:53 pm 21:53 Clear 28 -2.2 18 -7.8 66 66 ESE 14 22 30.08 1019 10 16.0934 0 0
10:53 pm 22:53 Clear 27 -2.8 19 -7.2 72 72 ESE 17 28 30.05 1018 10 16.0934 0 0
11:53 pm 23:53 Clear 25 -3.9 17 -8.3 72 72 ESE 14 22 30.01 1016 10 16.0934 0 0

Powered by AerisWeather